When you browse on this site, cookies collect data to enhance your experience and personalize the content and advertising you see.
Visit our Privacy Policy to learn more. By continuing to use the site, you agree to this use of cookies and data.
  • In Österreich
  • Länderverzeichnis
  • Für 7 Tage
  • Wassertemperatur
  • Satellitenkarten
  • Wetterkarte
  • News
  • Widgets
  • user-avatar
    Anmelden

    Stündliche Wetter Viedma

    Heute, 21 Februar, Donnerstag

    Zeit Temperatur Niederschläge Wind Luftdruck Luftfeuchtigkeit
    00:00 +22°C° 0 mm 3 m/S 751 mmHg 46%
    01:00 +22°C° 0 mm 3 m/S 751 mmHg 45%
    02:00 +21°C° 0 mm 2 m/S 752 mmHg 44%
    03:00 +21°C° 0 mm 2 m/S 752 mmHg 46%
    04:00 +21°C° 0 mm 2 m/S 752 mmHg 49%
    05:00 +20°C° 0 mm 2 m/S 752 mmHg 51%
    06:00 +21°C° 0 mm 3 m/S 753 mmHg 47%
    07:00 +24°C° 0 mm 3 m/S 753 mmHg 42%
    08:00 +25°C° 0 mm 3 m/S 754 mmHg 38%
    09:00 +26°C° 0 mm 3 m/S 754 mmHg 35%
    10:00 +27°C° 0 mm 3 m/S 754 mmHg 33%
    11:00 +28°C° 0 mm 3 m/S 755 mmHg 30%
    12:00 +28°C° 0 mm 3 m/S 755 mmHg 30%
    13:00 +29°C° 0 mm 4 m/S 754 mmHg 30%
    14:00 +29°C° 0 mm 4 m/S 754 mmHg 30%
    15:00 +28°C° 0 mm 5 m/S 754 mmHg 34%
    16:00 +27°C° 0 mm 6 m/S 754 mmHg 37%
    17:00 +26°C° 0 mm 7 m/S 754 mmHg 41%
    18:00 +24°C° 0 mm 7 m/S 754 mmHg 46%
    19:00 +22°C° 0 mm 7 m/S 754 mmHg 51%
    20:00 +21°C° 0 mm 7 m/S 755 mmHg 57%
    21:00 +21°C° 0 mm 6 m/S 755 mmHg 59%
    22:00 +21°C° 0 mm 5 m/S 756 mmHg 61%
    23:00 +20°C° 0 mm 5 m/S 756 mmHg 63%

    Morgen, 22 Februar, Freitag

    Zeit Temperatur Niederschläge Wind Luftdruck Luftfeuchtigkeit
    00:00 +20°C° 0 mm 5 m/S 756 mmHg 64%
    01:00 +20°C° 0 mm 5 m/S 756 mmHg 66%
    02:00 +20°C° 0 mm 4 m/S 756 mmHg 68%
    03:00 +19°C° 0 mm 4 m/S 756 mmHg 69%
    04:00 +19°C° 0 mm 4 m/S 756 mmHg 70%
    05:00 +19°C° 0 mm 4 m/S 756 mmHg 71%
    06:00 +20°C° 0 mm 4 m/S 756 mmHg 66%
    07:00 +20°C° 0 mm 4 m/S 757 mmHg 62%
    08:00 +21°C° 0 mm 5 m/S 757 mmHg 58%
    09:00 +23°C° 0 mm 5 m/S 757 mmHg 51%
    10:00 +25°C° 0 mm 4 m/S 757 mmHg 44%
    11:00 +26°C° 0 mm 4 m/S 758 mmHg 38%
    12:00 +27°C° 0 mm 5 m/S 757 mmHg 37%
    13:00 +27°C° 0 mm 5 m/S 757 mmHg 36%
    14:00 +27°C° 0 mm 6 m/S 757 mmHg 36%
    15:00 +26°C° 0 mm 6 m/S 757 mmHg 38%
    16:00 +24°C° 0 mm 6 m/S 756 mmHg 41%
    17:00 +23°C° 0 mm 6 m/S 756 mmHg 44%
    18:00 +22°C° 0 mm 6 m/S 756 mmHg 48%
    19:00 +21°C° 0 mm 5 m/S 756 mmHg 52%
    20:00 +20°C° 0 mm 5 m/S 757 mmHg 56%
    21:00 +20°C° 0 mm 5 m/S 756 mmHg 59%
    22:00 +20°C° 0 mm 5 m/S 756 mmHg 61%
    23:00 +20°C° 0 mm 5 m/S 756 mmHg 64%

    übermorgen, 23 Februar, Samstag

    Zeit Temperatur Niederschläge Wind Luftdruck Luftfeuchtigkeit
    00:00 +20°C° 0 mm 5 m/S 755 mmHg 68%
    01:00 +19°C° 0 mm 6 m/S 755 mmHg 72%
    02:00 +19°C° 0 mm 6 m/S 754 mmHg 75%
    03:00 +19°C° 0 mm 5 m/S 753 mmHg 80%
    04:00 +19°C° 0 mm 5 m/S 753 mmHg 84%
    05:00 +19°C° 0 mm 5 m/S 752 mmHg 88%
    06:00 +20°C° 0 mm 5 m/S 752 mmHg 81%
    07:00 +21°C° 0 mm 5 m/S 751 mmHg 74%
    08:00 +22°C° 0 mm 6 m/S 751 mmHg 68%
    09:00 +24°C° 0 mm 6 m/S 751 mmHg 57%
    10:00 +26°C° 0 mm 7 m/S 750 mmHg 46%
    11:00 +28°C° 0 mm 8 m/S 750 mmHg 35%
    12:00 +27°C° 0 mm 8 m/S 750 mmHg 30%
    13:00 +26°C° 0 mm 9 m/S 750 mmHg 26%
    14:00 +24°C° 0 mm 9 m/S 749 mmHg 21%
    15:00 +24°C° 0 mm 9 m/S 749 mmHg 21%
    16:00 +23°C° 0 mm 9 m/S 749 mmHg 22%
    17:00 +23°C° 0 mm 8 m/S 749 mmHg 22%
    18:00 +22°C° 0 mm 9 m/S 749 mmHg 26%
    19:00 +21°C° 0 mm 9 m/S 750 mmHg 31%
    20:00 +19°C° 0 mm 10 m/S 751 mmHg 35%
    21:00 +18°C° 0 mm 10 m/S 751 mmHg 37%
    22:00 +17°C° 0 mm 9 m/S 752 mmHg 40%
    23:00 +16°C° 0 mm 9 m/S 752 mmHg 42%

    24 Februar, Sonntag

    Zeit Temperatur Niederschläge Wind Luftdruck Luftfeuchtigkeit
    00:00 +15°C° 0 mm 8 m/S 753 mmHg 41%
    01:00 +15°C° 0 mm 6 m/S 753 mmHg 40%
    02:00 +14°C° 0 mm 5 m/S 753 mmHg 40%
    03:00 +14°C° 0 mm 4 m/S 753 mmHg 39%
    04:00 +14°C° 0 mm 4 m/S 753 mmHg 39%
    05:00 +13°C° 0 mm 4 m/S 753 mmHg 38%
    06:00 +15°C° 0 mm 5 m/S 753 mmHg 34%
    07:00 +16°C° 0 mm 6 m/S 753 mmHg 30%
    08:00 +17°C° 0 mm 7 m/S 753 mmHg 26%
    09:00 +17°C° 0 mm 7 m/S 753 mmHg 26%
    10:00 +18°C° 0 mm 8 m/S 753 mmHg 26%
    11:00 +20°C° 0 mm 8 m/S 753 mmHg 26%
    12:00 +20°C° 0 mm 8 m/S 753 mmHg 26%
    13:00 +20°C° 0 mm 8 m/S 752 mmHg 26%
    14:00 +20°C° 0 mm 8 m/S 752 mmHg 26%
    15:00 +17°C° 0.1 mm 9 m/S 752 mmHg 33%
    16:00 +16°C° 0.1 mm 9 m/S 752 mmHg 39%
    17:00 +15°C° 0.1 mm 9 m/S 752 mmHg 46%
    18:00 +13°C° 0.1 mm 9 m/S 753 mmHg 46%
    19:00 +12°C° 0.1 mm 8 m/S 754 mmHg 46%
    20:00 +12°C° 0.1 mm 8 m/S 754 mmHg 46%
    21:00 +12°C° 0 mm 8 m/S 754 mmHg 44%
    22:00 +11°C° 0 mm 8 m/S 755 mmHg 41%
    23:00 +11°C° 0 mm 8 m/S 755 mmHg 38%

    25 Februar, Montag

    Zeit Temperatur Niederschläge Wind Luftdruck Luftfeuchtigkeit
    00:00 +11°C° 0 mm 9 m/S 755 mmHg 39%
    01:00 +11°C° 0 mm 9 m/S 755 mmHg 40%
    02:00 +10°C° 0 mm 9 m/S 755 mmHg 41%
    03:00 +10°C° 0 mm 9 m/S 755 mmHg 43%
    04:00 +10°C° 0 mm 9 m/S 755 mmHg 45%
    05:00 +8°C° 0 mm 10 m/S 755 mmHg 48%
    06:00 +9°C° 0 mm 10 m/S 756 mmHg 46%
    07:00 +11°C° 0 mm 11 m/S 756 mmHg 44%
    08:00 +10°C° 0 mm 12 m/S 756 mmHg 42%
    09:00 +12°C° 0 mm 12 m/S 756 mmHg 40%
    10:00 +13°C° 0 mm 12 m/S 756 mmHg 37%
    11:00 +13°C° 0 mm 12 m/S 756 mmHg 35%
    12:00 +14°C° 0 mm 12 m/S 756 mmHg 33%
    13:00 +14°C° 0 mm 12 m/S 756 mmHg 31%
    14:00 +16°C° 0 mm 11 m/S 756 mmHg 28%
    15:00 +14°C° 0 mm 11 m/S 756 mmHg 29%
    16:00 +14°C° 0 mm 11 m/S 756 mmHg 30%
    17:00 +14°C° 0 mm 11 m/S 756 mmHg 31%
    18:00 +13°C° 0 mm 9 m/S 756 mmHg 33%
    19:00 +14°C° 0 mm 7 m/S 756 mmHg 36%
    20:00 +13°C° 0 mm 5 m/S 756 mmHg 38%
    21:00 +13°C° 0 mm 5 m/S 756 mmHg 40%
    22:00 +13°C° 0 mm 6 m/S 756 mmHg 42%
    23:00 +11°C° 0 mm 6 m/S 756 mmHg 44%

    26 Februar, Dienstag

    Zeit Temperatur Niederschläge Wind Luftdruck Luftfeuchtigkeit
    00:00 +11°C° 0 mm 6 m/S 756 mmHg 44%
    01:00 +11°C° 0 mm 6 m/S 756 mmHg 44%
    02:00 +12°C° 0 mm 5 m/S 756 mmHg 44%
    03:00 +12°C° 0 mm 5 m/S 756 mmHg 45%
    04:00 +12°C° 0 mm 5 m/S 756 mmHg 45%
    05:00 +12°C° 0 mm 5 m/S 757 mmHg 46%
    06:00 +13°C° 0 mm 6 m/S 757 mmHg 42%
    07:00 +15°C° 0 mm 6 m/S 757 mmHg 39%
    08:00 +16°C° 0 mm 7 m/S 757 mmHg 35%
    09:00 +18°C° 0 mm 7 m/S 757 mmHg 29%
    10:00 +20°C° 0 mm 7 m/S 757 mmHg 24%
    11:00 +22°C° 0 mm 6 m/S 757 mmHg 18%
    12:00 +23°C° 0 mm 7 m/S 756 mmHg 17%
    13:00 +24°C° 0 mm 7 m/S 756 mmHg 16%
    14:00 +26°C° 0 mm 8 m/S 755 mmHg 15%
    15:00 +26°C° 0 mm 7 m/S 755 mmHg 16%
    16:00 +26°C° 0 mm 7 m/S 754 mmHg 17%
    17:00 +26°C° 0 mm 6 m/S 754 mmHg 17%
    18:00 +23°C° 0 mm 5 m/S 754 mmHg 21%
    19:00 +22°C° 0 mm 4 m/S 754 mmHg 25%
    20:00 +20°C° 0 mm 2 m/S 754 mmHg 29%
    21:00 +19°C° 0 mm 3 m/S 754 mmHg 34%
    22:00 +19°C° 0 mm 3 m/S 754 mmHg 38%
    23:00 +18°C° 0 mm 4 m/S 753 mmHg 42%
    Mehr zeigen